User: anonymous   Login
Location: Rio Negrinho
(26.2394°S, 49.4999°W)
Time: 11:11:46
(UTC+00:00)
Language:

H-2A R/B - Orbit

View from above orbital plane
View from above orbital plane
View from above satellite
View from above satellite

Ground track
Ground track

The orbit data is extracted from the following two-line orbital elements,

1 36105U 09066B   20169.21785600  .00000500  00000-0  26701-4 0    01
2 36105  97.2866 170.2276 0030370 126.9529  14.6617 15.15001551    06
Epoch (UTC): 17 June 2020 05:13:42
Eccentricity: 0.0030370
inclination: 97.2866°
perigee height: 500 km
apogee height: 542 km
right ascension of ascending node: 170.2276°
argument of perigee: 126.9529°
revolutions per day: 15.15001551
mean anomaly at epoch: 14.6617°
orbit number at epoch: 0

The dashed part of the orbit path shows where the satellite is in the earth's shadow,  

DLR